Dalzell, IL

3:10 AM CST on December 10, 2016 (GMT -0600)
Illinois Valley Regional-Duncan

Weather History for KVYS - November, 2014

Change the Weather History Date:

Sunday, November 16, 2014

  Actual Average Record
Temperature  
Mean Temperature 24 °F -  
Max Temperature 32 °F 48 °F 73 °F (1971)
Min Temperature 16 °F 31 °F 15 °F (1969)
Degree Days  
Heating Degree Days 40    
Moisture  
Dew Point 23 °F    
Average Humidity 83    
Maximum Humidity 89    
Minimum Humidity 77    
Precipitation  
Precipitation 0.00 in - - ()
Sea Level Pressure  
Sea Level Pressure 30.06 in    
Wind  
Wind Speed 6 mph (WSW)    
Max Wind Speed 14 mph    
Max Gust Speed 18 mph    
Visibility 7 miles    
Events Snow    
Averages and records for this station are not official NWS values.
T = Trace of Precipitation, MM = Missing Value Source: NWS Daily Summary

Daily Weather History Graph

Daily Weather History Graph

Search for Another Location

Airport or City:

Trip Planner

Search our weather history database for the weather conditions in past years. The results will help you decide how hot, cold, wet, or windy it might be!

Date:

Astronomy

Nov. 16, 2014 Rise Set
Actual Time 6:46 AM CST 4:36 PM CST
Civil Twilight 6:16 AM CST 5:05 PM CST
Nautical Twilight 5:42 AM CST 5:39 PM CST
Astronomical Twilight 5:10 AM CST 6:12 PM CST
Moon 12:48 AM CST (11/16) 1:33 PM CST (11/16)
Length of Visible Light 10h 49m
Length of Day
9h 50m
Waning Crescent, 31% of the Moon is Illuminated
Nov 16
Waning Crescent
Nov 22
New
Nov 29
First Quarter
Dec 6
Full
Dec 14
Last Quarter

Hourly Weather History & Observations

Time (CST) Temp. Windchill Dew Point Humidity Pressure Visibility Wind Dir Wind Speed Gust Speed Precip Events Conditions
12:15 AM 24.8 °F - 21.2 °F 86% 30.21 in 10.0 mi Calm Calm - N/A   Overcast
12:35 AM 23.9 °F - 20.5 °F 87% 30.20 in 10.0 mi Calm Calm - N/A   Overcast
12:55 AM 23.7 °F - 20.3 °F 87% 30.18 in 10.0 mi Calm Calm - N/A   Mostly Cloudy
1:15 AM 24.1 °F - 20.7 °F 87% 30.18 in 10.0 mi Calm Calm - N/A   Overcast
1:35 AM 24.6 °F - 20.8 °F 86% 30.18 in 10.0 mi Calm Calm - N/A   Overcast
1:55 AM 25.2 °F 19.5 °F 21.2 °F 85% 30.17 in 10.0 mi SSE 4.6 mph - N/A   Scattered Clouds
2:15 AM 24.6 °F 18.8 °F 20.3 °F 84% 30.17 in 10.0 mi SSE 4.6 mph - N/A   Clear
2:35 AM 24.6 °F 17.7 °F 20.1 °F 83% 30.17 in 10.0 mi SSE 5.8 mph - N/A   Mostly Cloudy
2:55 AM 25.3 °F 18.5 °F 20.1 °F 81% 30.16 in 10.0 mi SSE 5.8 mph - N/A   Overcast
3:15 AM 25.0 °F 18.1 °F 19.4 °F 79% 30.15 in 10.0 mi South 5.8 mph - N/A   Mostly Cloudy
3:35 AM 26.1 °F - 20.5 °F 79% 30.17 in 10.0 mi Calm Calm - N/A   Overcast
3:55 AM 26.1 °F - 20.8 °F 81% 30.15 in 10.0 mi Calm Calm - N/A   Overcast
4:15 AM 26.1 °F 20.5 °F 21.0 °F 81% 30.14 in 10.0 mi South 4.6 mph - N/A   Overcast
4:35 AM 26.4 °F 19.8 °F 21.6 °F 82% 30.14 in 5.0 mi South 5.8 mph - N/A Snow Light Snow
4:55 AM 26.4 °F - 21.9 °F 83% 30.14 in 7.0 mi Calm Calm - N/A Snow Light Snow
5:15 AM 26.2 °F 22.1 °F 22.1 °F 84% 30.13 in 7.0 mi South 3.5 mph - N/A Snow Light Snow
5:35 AM 26.1 °F 19.4 °F 22.5 °F 86% 30.12 in 10.0 mi South 5.8 mph - N/A Snow Light Snow
5:55 AM 26.4 °F 19.8 °F 22.8 °F 86% 30.11 in 10.0 mi South 5.8 mph - N/A   Overcast
6:15 AM 27.1 °F 18.9 °F 23.5 °F 86% 30.10 in 10.0 mi South 8.1 mph - N/A   Overcast
6:35 AM 27.5 °F 20.2 °F 23.9 °F 86% 30.10 in 7.0 mi South 6.9 mph - N/A   Overcast
6:55 AM 28.0 °F 24.2 °F 24.8 °F 88% 30.10 in 7.0 mi WSW 3.5 mph - N/A   Overcast
7:15 AM 28.4 °F 23.3 °F 25.5 °F 89% 30.10 in 5.0 mi SW 4.6 mph - N/A   Overcast
7:35 AM 28.8 °F 22.6 °F 25.7 °F 88% 30.09 in 4.0 mi SSW 5.8 mph - N/A   Overcast
7:55 AM 28.9 °F 21.9 °F 26.1 °F 89% 30.10 in 4.0 mi SSW 6.9 mph - N/A   Overcast
8:15 AM 29.3 °F 23.2 °F 26.2 °F 88% 30.10 in 4.0 mi SSW 5.8 mph - N/A   Overcast
8:35 AM 29.7 °F 23.7 °F 26.6 °F 88% 30.11 in 4.0 mi SW 5.8 mph - N/A   Overcast
8:55 AM 30.0 °F 23.2 °F 27.0 °F 88% 30.10 in 4.0 mi SW 6.9 mph - N/A   Overcast
9:15 AM 30.2 °F 21.9 °F 27.0 °F 88% 30.11 in 4.0 mi SW 9.2 mph - N/A   Overcast
9:35 AM 30.6 °F 23.8 °F 27.1 °F 87% 30.10 in 3.0 mi SW 6.9 mph - N/A   Overcast
9:55 AM 30.7 °F 24.1 °F 27.1 °F 86% 30.10 in 3.0 mi SW 6.9 mph - N/A   Overcast
10:15 AM 30.9 °F 22.2 °F 27.1 °F 86% 30.10 in 3.0 mi SW 10.4 mph - N/A Snow Light Snow
10:35 AM 31.1 °F 23.1 °F 27.3 °F 86% 30.09 in 3.0 mi SW 9.2 mph - N/A Snow Light Snow
10:55 AM 31.1 °F 23.1 °F 27.1 °F 85% 30.07 in 4.0 mi SSW 9.2 mph - N/A   Overcast
11:15 AM 31.1 °F 21.9 °F 27.0 °F 85% 30.07 in 5.0 mi SW 11.5 mph - N/A   Overcast
11:35 AM 32.0 °F 23.6 °F 27.5 °F 83% 30.06 in 4.0 mi WSW 10.4 mph - N/A Snow Light Snow
11:55 AM 32.0 °F 22.5 °F 26.8 °F 81% 30.04 in 7.0 mi SW 12.7 mph - N/A   Overcast
12:15 PM 32.0 °F 23.6 °F 26.6 °F 80% 30.03 in 7.0 mi SW 10.4 mph - N/A   Overcast
12:35 PM 32.0 °F 24.2 °F 26.1 °F 79% 30.02 in 7.0 mi WSW 9.2 mph - N/A   Overcast
12:55 PM 32.2 °F 23.8 °F 26.4 °F 79% 30.01 in 7.0 mi WSW 10.4 mph - N/A   Overcast
1:15 PM 32.0 °F 23.6 °F 26.4 °F 80% 30.01 in 7.0 mi SW 10.4 mph - N/A   Overcast
1:35 PM 32.2 °F 23.2 °F 26.6 °F 80% 30.01 in 7.0 mi WSW 11.5 mph - N/A   Overcast
1:55 PM 32.0 °F 23.0 °F 26.2 °F 79% 30.00 in 7.0 mi SW 11.5 mph - N/A   Overcast
2:15 PM 32.0 °F 23.6 °F 26.4 °F 80% 30.00 in 7.0 mi SW 10.4 mph - N/A   Overcast
2:35 PM 32.0 °F 24.2 °F 26.4 °F 80% 30.00 in 7.0 mi WSW 9.2 mph - N/A   Overcast
2:55 PM 32.0 °F 23.0 °F 26.6 °F 80% 30.00 in 7.0 mi WSW 11.5 mph - N/A   Overcast
3:15 PM 32.0 °F 23.0 °F 26.6 °F 80% 29.99 in 7.0 mi SW 11.5 mph - N/A   Overcast
3:35 PM 32.0 °F 23.0 °F 26.6 °F 80% 29.99 in 7.0 mi WSW 11.5 mph - N/A   Overcast
3:55 PM 31.8 °F 22.8 °F 26.6 °F 81% 29.99 in 7.0 mi WSW 11.5 mph - N/A   Overcast
4:15 PM 31.6 °F 24.4 °F 26.6 °F 82% 29.99 in 7.0 mi West 8.1 mph - N/A   Overcast
4:35 PM 30.9 °F 21.2 °F 25.5 °F 80% 29.99 in 7.0 mi West 12.7 mph - N/A   Overcast
4:55 PM 30.6 °F 21.8 °F 24.6 °F 79% 29.99 in 10.0 mi West 10.4 mph 16.1 mph N/A   Overcast
5:15 PM 30.4 °F 21.5 °F 24.1 °F 77% 29.99 in 10.0 mi West 10.4 mph - N/A   Overcast
5:35 PM 30.2 °F 21.9 °F 24.3 °F 79% 29.99 in 10.0 mi West 9.2 mph - N/A   Overcast
5:55 PM 29.8 °F 20.9 °F 24.8 °F 81% 29.98 in 7.0 mi West 10.4 mph - N/A   Overcast
6:15 PM 29.1 °F 20.6 °F 24.3 °F 82% 29.98 in 7.0 mi West 9.2 mph - N/A   Overcast
6:35 PM 28.4 °F 19.7 °F 23.9 °F 83% 29.99 in 7.0 mi West 9.2 mph - N/A   Overcast
6:55 PM 27.9 °F 17.3 °F 23.7 °F 84% 29.98 in 7.0 mi West 12.7 mph 17.3 mph N/A   Overcast
7:15 PM 27.5 °F 16.8 °F 22.6 °F 82% 29.99 in 7.0 mi West 12.7 mph - N/A   Overcast
7:35 PM 26.6 °F 16.2 °F 21.2 °F 80% 29.98 in 10.0 mi West 11.5 mph 18.4 mph N/A   Overcast
7:55 PM 26.4 °F 16.0 °F 20.7 °F 79% 29.97 in 7.0 mi West 11.5 mph - N/A   Overcast
8:15 PM 26.1 °F 15.6 °F 19.9 °F 78% 29.97 in 7.0 mi WNW 11.5 mph 16.1 mph N/A   Overcast
8:35 PM 25.7 °F 14.0 °F 19.9 °F 79% 29.97 in 7.0 mi West 13.8 mph 18.4 mph N/A   Overcast
8:55 PM 23.7 °F 12.1 °F 18.7 °F 81% 29.98 in 7.0 mi WNW 12.7 mph 16.1 mph N/A   Overcast
9:15 PM 21.7 °F 11.5 °F 17.2 °F 83% 29.98 in 7.0 mi WNW 9.2 mph - N/A   Mostly Cloudy
9:35 PM 20.7 °F 11.0 °F 16.3 °F 83% 29.98 in 7.0 mi West 8.1 mph - N/A   Scattered Clouds
9:55 PM 19.8 °F 9.1 °F 16.0 °F 85% 29.98 in 7.0 mi WNW 9.2 mph - N/A   Scattered Clouds
10:15 PM 19.4 °F 7.2 °F 15.8 °F 86% 29.98 in 7.0 mi West 11.5 mph 17.3 mph N/A   Clear
10:35 PM 19.0 °F 7.5 °F 14.2 °F 81% 29.97 in 10.0 mi West 10.4 mph - N/A   Clear
10:55 PM 18.1 °F 7.1 °F 13.1 °F 81% 29.97 in 10.0 mi West 9.2 mph - N/A   Clear
11:15 PM 17.4 °F 5.4 °F 12.7 °F 82% 29.97 in 10.0 mi West 10.4 mph - N/A   Clear
11:35 PM 17.2 °F 4.5 °F 12.4 °F 81% 29.97 in 10.0 mi West 11.5 mph - N/A   Clear
11:55 PM 16.7 °F 7.2 °F 11.7 °F 81% 29.96 in 10.0 mi West 6.9 mph - N/A   Clear